Regional Weather Roundup
Issued by NWS Upton, NY

Current Version | Previous Version | Text Only | Print | Product List | Glossary On
Versions: 1 2 3 4 5 6 7 8 9 10 11 12 13 14 15 16 17 18 19 20 21 22 23 24 25 26 27
000
ASUS41 KOKX 050008
RWROKX

REGIONAL WEATHER ROUNDUP
NATIONAL WEATHER SERVICE NEW YORK NY
700 PM EST SUN DEC 04 2016

NOTE: "FAIR" INDICATES FEW OR NO CLOUDS BELOW 12,000 FEET WITH NO
SIGNIFICANT WEATHER AND/OR OBSTRUCTIONS TO VISIBILITY.

NYZ071-072-176-178-NJZ106-104-050100-
NEW YORK CITY METRO AREA

CITY           SKY/WX    TMP DP  RH WIND       PRES   REMARKS
Central Park   MOCLDY    42  24  49 CALM      30.21S
Wall St Helipt CLOUDY    44  26  49 NE9       30.20S
Bronx Bot Gard NOT AVBL
LaGuardia APRT CLOUDY    44  24  45 E9        30.19F
Kennedy INTL   MOCLDY    40  22  48 E6        30.20F
Breezy Point     N/A     41 N/A N/A NE7         N/A
Newark/Liberty CLOUDY    44  23  43 NE6       30.18F
Teterboro      CLOUDY    42  22  44 NE5       30.18F
$$

NYZ177-179-078>081-050100-
LONG ISLAND NEW YORK

CITY           SKY/WX    TMP DP  RH WIND       PRES   REMARKS
Jones Beach      N/A     41 N/A N/A E9          N/A
Matinecock PT  NOT AVBL
Farmingdale    CLOUDY    38  22  52 CALM      30.20S
MacArthur/ISP  CLOUDY    35  24  64 N3        30.20R
Shirley        MOCLDY    32  22  66 CALM      30.21
Westhampton    PTCLDY    26  19  74 CALM      30.22S
Southampton    NOT AVBL
Bridgehampton  NOT AVBL
East Hampton     N/A     25  19  77 CALM      30.20S
Montauk          N/A     38  22  52 CALM      30.21S
$$

NYZ052-065-067-050100-
HUDSON VALLEY

CITY           SKY/WX    TMP DP  RH WIND       PRES   REMARKS
White Plains   PTCLDY    36  20  52 NE5       30.17F WCI  32
Newburgh       MOCLDY    32  23  69 NE8       30.20S WCI  25
Montgomery     CLOUDY    33  23  66 NE7       30.19S WCI  27
Poughkeepsie   CLOUDY    30  21  69 NW3       30.20F
Albany         CLOUDY    27  20  75 CALM      30.22F
$$

NJZ001-105-106-008-010-013-015-019>022-104-050100-
NEW JERSEY

CITY           SKY/WX    TMP DP  RH WIND       PRES   REMARKS
Newark/Liberty CLOUDY    44  23  43 NE6       30.18F
Teterboro      CLOUDY    42  22  44 NE5       30.18F
Caldwell       CLOUDY    40  24  53 E6        30.19S
Somerville     CLOUDY    36  26  67 CALM      30.15F
Linden           N/A     43  21  40 CALM      30.19S
Sussex         CLOUDY    35  24  64 NE8       30.17S WCI  29
Andover          N/A     36  25  64 CALM      30.15F
Trenton        MOCLDY    42  24  49 CALM      30.18R
Millville      CLOUDY    39  32  76 CALM      30.19F
Atlantic City  MOCLDY    39  29  67 CALM      30.18F
Wrightstown    NOT AVBL
Toms River     CLOUDY    33  29  85 CALM      30.20S
Belmar         CLOUDY    39  24  55 SE3       30.19F
$$

PAZ047>061-062-071-050100-
EASTERN PENNSYLVANIA

CITY           SKY/WX    TMP DP  RH WIND       PRES   REMARKS
Philadelphia   CLOUDY    44  28  53 SW5       30.19S
Allentown      CLOUDY    40  24  53 CALM      30.16S
Scranton       CLOUDY    36  24  62 CALM      30.14S
$$

CTZ002-004>006-009-010-012-RIZ004-006-007-MAZ004-011-015-050100-
SOUTHERN NEW ENGLAND
 IN CT

CITY           SKY/WX    TMP DP  RH WIND       PRES   REMARKS
Bradley INTL   PTCLDY    31  19  61 W3        30.21R
Hartford       PTCLDY    34  20  56 CALM      30.22R
Danbury        CLOUDY    30  22  72 CALM      30.20S
Wtrbury/Oxford PTCLDY    28  16  59 N5        30.19F WCI  23
Bridgeport     CLOUDY    41  23  48 N5        30.21S
Meriden        PTCLDY    31  23  72 CALM      30.21S
New Haven      MOCLDY    31  21  66 N5        30.20F WCI  26
Chester          N/A     34  19  55 CALM      30.19S
Groton         PTCLDY    31  22  69 CALM      30.21R
Wilimantic     CLEAR     30  22  72 CALM      30.22R

 IN RI

CITY           SKY/WX    TMP DP  RH WIND       PRES   REMARKS
Providence     CLEAR     34  20  56 W5        30.20R WCI  30
Block Island   CLEAR     38  21  50 NW3       30.21R
Westerly       CLEAR     30  19  63 CALM      30.22R
 IN MA

CITY           SKY/WX    TMP DP  RH WIND       PRES   REMARKS
Boston         CLEAR     36  20  52 N8        30.20R WCI  30
Worcester      CLEAR     30  17  58 NW8       30.16R WCI  22
Westfield      CLEAR     28  21  75 N3        30.20R
Provincetown   CLEAR     39  23  52 N12       30.18R WCI  32
Nantucket      CLEAR     34  22  61 W5        30.19R WCI  30
$$

ANZ330-335-338-340-345-350-353-355-050100-
COASTAL MARINE OBSERVATIONS


STATION/POSITION TIME  SKY/WX   TEMP    WIND        PRES    VSBY  WAVE
                                AIR SEA DIR/SP/G                  HT/PER
                 (UTC)          (F)     (DEG/KT/KT) (MB)    (MI)  (FT/S)
NY HARB ENTRANCE 2250            45 53   60/  6/  8 1022.7          1
20 S FIRE ISLAND 2250            43 53  360/  6/  8 1022.7          2/ 3
GREAT SOUTH BAY  2330            40 44                N/A
23 SSW MONTAUK P 2350            42 55  330/  6/ 10 1023.2          1/ 8
15 E BARNEGAT LI 2330               54                N/A           2/ 8
HUDSON CANYON    2250            44 58              1023.1          3/ 5
KINGS POINT      2330            40 48              1022.5
EXECUTION ROCKS  2345            43      50/  8/ 14   N/A
CENTRAL LI SOUND 2330            41 51  330/  8/ 12   N/A           1/ 2
EASTERN LI SOUND NOT AVBL
ROBBINS REEF     2330            44     100/  9/ 10 1022.3
$$


>>>>>>>>>>>>>>>>>>>>>>>>>>>> KEY <<<<<<<<<<<<<<<<<<<<<<<<<<<
>                                                          <
>     SKY/WX - Sky Condition/Present Weather               <
>     TMP    - Temperature in Fahrenheit                   <
>     DP     - Dew Point in Fahrenheit                     <
>     RH     - Relative Humidity in Percent                <
>     WIND   - Direction (from) and Speed in MPH           <
>     PRES   - Mean Sea Level Pressure (inches of Hg)      <
>     WCI    - Wind Chill Index                            <
>     VSB    - VISIBILITY IN MILES                         <
>     HX     - HEAT INDEX                                  <
>     TC     - TEMPERATURE IN CELSIUS                      <
>     VRB    - VARIABLE WIND DIRECTION                     <
>                                                          <
>>>>>>>>>>>>>>>>>>>>>>>>>>>> KEY <<<<<<<<<<<<<<<<<<<<<<<<<<<




USA.gov is the U.S. government's official web portal to all federal, state and local government web resources and services.